Regional Weather Roundup
Issued by NWS

Home | Current Version | Previous Version | Text Only | Print | Product List | Glossary On
Versions: 1 2 3 4 5 6 7 8 9 10 11 12 13 14 15 16 17 18 19 20 21 22 23 24 25 26 27 28 29 30 31 32 33 34 35 36 37 38 39 40 41 42 43 44 45 46 47 48 49 50
000
ASUS43 KFSD 261602
RWRSD

WEATHER ROUNDUP FOR SOUTH DAKOTA
NATIONAL WEATHER SERVICE SIOUX FALLS SD
1100 AM CDT WED APR 26 2017

NOTE: "FAIR" INDICATES FEW OR NO CLOUDS BELOW 12,000 FEET WITH NO
SIGNIFICANT WEATHER AND/OR OBSTRUCTIONS TO VISIBILITY.


SDZ001>005-009-010-012>017-261700-
NORTHWEST AND NORTH CENTRAL SOUTH DAKOTA

CITY           SKY/WX    TMP DP  RH WIND       PRES   REMARKS
BUFFALO          N/A     34  24  67 N8        29.80S WCI  27
FAITH            N/A     33  26  75 N16       29.84F WCI  23
MOBRIDGE       CLOUDY    35  24  64 N21G26    29.80F WCI  24
$$

SDZ012>016-024>037-041>051-057-063-072>074-261700-
SOUTHWEST AND SOUTH CENTRAL SOUTH DAKOTA

CITY           SKY/WX    TMP DP  RH WIND       PRES   REMARKS
RAPID CTY ARPT CLOUDY    31  24  75 NW13      29.86F WCI  21
PIERRE         CLOUDY    35  26  69 N20G28    29.80F WCI  24
CUSTER         CLOUDY    28  25  88 VRB3      29.75F
ELLSWORTH AFB  CLOUDY    30  25  82 NW13      29.85F WCI  20
PHILIP         CLOUDY    34  27  75 N17       29.85F WCI  23
PINE RIDGE     CLOUDY    33  26  75 N9        29.84F WCI  25
SPEARFISH      PTSUNNY   27  23  86 CALM      29.85S
WINNER         CLOUDY    36  28  73 NW28G33   29.79S
$$

SDZ004>011-016>023-039-040-261700-
NORTHEAST SOUTH DAKOTA

CITY           SKY/WX    TMP DP  RH WIND       PRES   REMARKS
ABERDEEN       SNOW      29  26  89 N16       29.78S VSB 1/2 WCI  17
WATERTOWN      CLOUDY    30  27  88 N22       29.67S WCI  17
BROOKINGS      LGT SNOW  31  28  89 N21       29.65F FOG     WCI  18
SISSETON         N/A     30  28  92 N24       29.70F WCI  16
$$

SDZ017-020-022-023-036>040-048>070-261700-
SOUTHEAST SOUTH DAKOTA

CITY           SKY/WX    TMP DP  RH WIND       PRES   REMARKS
SIOUX FALLS    CLOUDY    36  32  85 NW18G28   29.66S
HURON          CLOUDY    33  27  78 N22G29    29.75S WCI  21
CHAMBERLAIN    CLOUDY    37  29  75 W22G28    29.78S
MITCHELL       CLOUDY    35  28  75 N25       29.75S WCI  23
YANKTON        CLOUDY    36  28  75 NW23G30   29.69F
$$

ABBREVIATIONS USED IN REMARKS
   TC - TEMPERATURE IN CELSIUS
  WCI - WIND CHILL INDEX
   HX - HEAT INDEX
  VSB - VISIBILITY




USA.gov is the U.S. government's official web portal to all federal, state and local government web resources and services.